When you browse on this site, cookies collect data to enhance your experience and personalize the content and advertising you see.
Visit our Privacy Policy to learn more. By continuing to use the site, you agree to this use of cookies and data.
  • In Hungary
  • List of Countries
  • For 7 days
  • Water Temperature
  • Satellite Maps
  • Weather Map
  • News
  • Weather Widgets
  • user-avatar
    Login

    Hourly Weather Chas

    Today, 23 January, Wednesday

    Time Temperature Precipitation Wind Pressure Humidity
    00:00 +21°C° 0 mm 2 mps 743 mmHg 38%
    01:00 +20°C° 0 mm 2 mps 743 mmHg 41%
    02:00 +21°C° 0 mm 1 mps 743 mmHg 43%
    03:00 +20°C° 0 mm 1 mps 742 mmHg 45%
    04:00 +20°C° 0 mm 1 mps 742 mmHg 46%
    05:00 +19°C° 0 mm 1 mps 742 mmHg 47%
    06:00 +19°C° 0 mm 1 mps 742 mmHg 55%
    07:00 +20°C° 0 mm 1 mps 743 mmHg 51%
    08:00 +22°C° 0 mm 1 mps 743 mmHg 47%
    09:00 +23°C° 0 mm 1 mps 743 mmHg 44%
    10:00 +25°C° 0 mm 2 mps 743 mmHg 39%
    11:00 +27°C° 0 mm 2 mps 743 mmHg 35%
    12:00 +29°C° 0 mm 2 mps 743 mmHg 31%
    13:00 +30°C° 0 mm 2 mps 743 mmHg 28%
    14:00 +31°C° 0 mm 2 mps 742 mmHg 26%
    15:00 +31°C° 0 mm 2 mps 742 mmHg 23%
    16:00 +30°C° 0 mm 2 mps 742 mmHg 24%
    17:00 +29°C° 0 mm 2 mps 741 mmHg 26%
    18:00 +28°C° 0 mm 2 mps 741 mmHg 28%
    19:00 +27°C° 0 mm 2 mps 742 mmHg 29%
    20:00 +27°C° 0 mm 3 mps 742 mmHg 31%
    21:00 +26°C° 0 mm 3 mps 743 mmHg 33%
    22:00 +25°C° 0 mm 2 mps 743 mmHg 34%
    23:00 +24°C° 0 mm 2 mps 743 mmHg 36%

    Tomorrow, 24 January, Thursday

    Time Temperature Precipitation Wind Pressure Humidity
    00:00 +24°C° 0 mm 2 mps 743 mmHg 38%
    01:00 +23°C° 0 mm 1 mps 743 mmHg 40%
    02:00 +22°C° 0 mm 1 mps 743 mmHg 42%
    03:00 +21°C° 0 mm 1 mps 743 mmHg 43%
    04:00 +21°C° 0 mm 1 mps 743 mmHg 44%
    05:00 +21°C° 0 mm 1 mps 743 mmHg 44%
    06:00 +20°C° 0 mm 1 mps 743 mmHg 45%
    07:00 +22°C° 0 mm 1 mps 744 mmHg 43%
    08:00 +23°C° 0 mm 1 mps 744 mmHg 41%
    09:00 +24°C° 0 mm 2 mps 745 mmHg 39%
    10:00 +25°C° 0 mm 2 mps 745 mmHg 36%
    11:00 +27°C° 0 mm 2 mps 745 mmHg 32%
    12:00 +29°C° 0 mm 2 mps 745 mmHg 29%
    13:00 +29°C° 0 mm 2 mps 744 mmHg 28%
    14:00 +30°C° 0 mm 2 mps 744 mmHg 27%
    15:00 +30°C° 0 mm 2 mps 743 mmHg 25%
    16:00 +29°C° 0 mm 2 mps 743 mmHg 28%
    17:00 +28°C° 0 mm 2 mps 743 mmHg 30%
    18:00 +27°C° 0 mm 3 mps 743 mmHg 32%
    19:00 +26°C° 0 mm 3 mps 743 mmHg 36%
    20:00 +25°C° 0 mm 3 mps 743 mmHg 39%
    21:00 +24°C° 0 mm 3 mps 744 mmHg 43%
    22:00 +24°C° 0 mm 3 mps 744 mmHg 45%
    23:00 +23°C° 0 mm 2 mps 744 mmHg 48%

    Day after tomorrow, 25 January, Friday

    Time Temperature Precipitation Wind Pressure Humidity
    00:00 +21°C° 0 mm 2 mps 744 mmHg 51%
    01:00 +21°C° 0 mm 2 mps 744 mmHg 53%
    02:00 +21°C° 0 mm 1 mps 744 mmHg 55%
    03:00 +21°C° 0 mm 1 mps 744 mmHg 57%
    04:00 +20°C° 0 mm 1 mps 744 mmHg 60%
    05:00 +19°C° 0 mm 2 mps 744 mmHg 62%
    06:00 +18°C° 0 mm 2 mps 744 mmHg 65%
    07:00 +19°C° 0 mm 3 mps 744 mmHg 62%
    08:00 +20°C° 0 mm 3 mps 745 mmHg 59%
    09:00 +21°C° 0 mm 4 mps 746 mmHg 55%
    10:00 +22°C° 0 mm 4 mps 745 mmHg 50%
    11:00 +25°C° 0 mm 5 mps 745 mmHg 45%
    12:00 +26°C° 0 mm 5 mps 745 mmHg 39%
    13:00 +27°C° 0 mm 5 mps 744 mmHg 38%
    14:00 +27°C° 0 mm 4 mps 744 mmHg 36%
    15:00 +28°C° 0 mm 4 mps 743 mmHg 34%
    16:00 +27°C° 0 mm 4 mps 743 mmHg 39%
    17:00 +25°C° 0 mm 5 mps 743 mmHg 43%
    18:00 +23°C° 0 mm 5 mps 743 mmHg 48%
    19:00 +22°C° 0 mm 5 mps 744 mmHg 51%
    20:00 +21°C° 0 mm 4 mps 744 mmHg 55%
    21:00 +21°C° 0 mm 4 mps 744 mmHg 58%
    22:00 +20°C° 0 mm 3 mps 744 mmHg 59%
    23:00 +20°C° 0 mm 3 mps 744 mmHg 59%

    26 January, Saturday

    Time Temperature Precipitation Wind Pressure Humidity
    00:00 +19°C° 0 mm 2 mps 745 mmHg 60%
    01:00 +19°C° 0 mm 2 mps 744 mmHg 61%
    02:00 +19°C° 0 mm 2 mps 744 mmHg 62%
    03:00 +18°C° 0 mm 2 mps 744 mmHg 63%
    04:00 +18°C° 0 mm 3 mps 744 mmHg 66%
    05:00 +17°C° 0 mm 3 mps 744 mmHg 69%
    06:00 +17°C° 0 mm 3 mps 744 mmHg 73%
    07:00 +17°C° 0 mm 4 mps 745 mmHg 69%
    08:00 +18°C° 0 mm 4 mps 746 mmHg 66%
    09:00 +19°C° 0 mm 4 mps 746 mmHg 62%
    10:00 +19°C° 0.1 mm 4 mps 746 mmHg 62%
    11:00 +19°C° 0.1 mm 5 mps 746 mmHg 62%
    12:00 +19°C° 0.1 mm 5 mps 746 mmHg 62%
    13:00 +20°C° 0 mm 4 mps 745 mmHg 59%
    14:00 +20°C° 0 mm 4 mps 745 mmHg 55%
    15:00 +21°C° 0 mm 3 mps 744 mmHg 52%
    16:00 +21°C° 0 mm 2 mps 744 mmHg 53%
    17:00 +20°C° 0 mm 2 mps 744 mmHg 54%
    18:00 +21°C° 0 mm 1 mps 744 mmHg 55%
    19:00 +20°C° 0 mm 1 mps 745 mmHg 56%
    20:00 +20°C° 0 mm 1 mps 745 mmHg 58%
    21:00 +19°C° 0 mm 1 mps 746 mmHg 59%
    22:00 +19°C° 0 mm 1 mps 746 mmHg 60%
    23:00 +19°C° 0 mm 1 mps 746 mmHg 62%

    27 January, Sunday

    Time Temperature Precipitation Wind Pressure Humidity
    00:00 +17°C° 0 mm 2 mps 746 mmHg 63%
    01:00 +17°C° 0 mm 2 mps 745 mmHg 63%
    02:00 +17°C° 0 mm 2 mps 745 mmHg 64%
    03:00 +16°C° 0 mm 2 mps 745 mmHg 65%
    04:00 +16°C° 0 mm 2 mps 745 mmHg 66%
    05:00 +16°C° 0 mm 2 mps 745 mmHg 67%
    06:00 +16°C° 0 mm 2 mps 745 mmHg 68%
    07:00 +17°C° 0 mm 2 mps 746 mmHg 64%
    08:00 +18°C° 0 mm 2 mps 747 mmHg 60%
    09:00 +19°C° 0 mm 2 mps 747 mmHg 56%
    10:00 +21°C° 0 mm 2 mps 747 mmHg 50%
    11:00 +24°C° 0 mm 2 mps 747 mmHg 43%
    12:00 +26°C° 0 mm 3 mps 747 mmHg 37%
    13:00 +26°C° 0 mm 2 mps 746 mmHg 35%
    14:00 +27°C° 0 mm 2 mps 745 mmHg 34%
    15:00 +28°C° 0 mm 2 mps 744 mmHg 32%
    16:00 +27°C° 0 mm 1 mps 744 mmHg 35%
    17:00 +26°C° 0 mm 1 mps 744 mmHg 37%
    18:00 +25°C° 0 mm 1 mps 744 mmHg 39%
    19:00 +25°C° 0 mm 1 mps 745 mmHg 43%
    20:00 +24°C° 0 mm 1 mps 745 mmHg 46%
    21:00 +23°C° 0 mm 1 mps 746 mmHg 49%
    22:00 +22°C° 0 mm 1 mps 746 mmHg 52%
    23:00 +20°C° 0 mm 2 mps 746 mmHg 56%

    28 January, Monday

    Time Temperature Precipitation Wind Pressure Humidity
    00:00 +20°C° 0 mm 2 mps 745 mmHg 59%
    01:00 +19°C° 0 mm 2 mps 745 mmHg 63%
    02:00 +19°C° 0 mm 2 mps 745 mmHg 67%
    03:00 +18°C° 0 mm 3 mps 745 mmHg 71%
    04:00 +18°C° 0 mm 3 mps 745 mmHg 74%
    05:00 +17°C° 0 mm 3 mps 745 mmHg 76%
    06:00 +17°C° 0 mm 3 mps 745 mmHg 79%
    07:00 +18°C° 0 mm 3 mps 746 mmHg 74%
    08:00 +19°C° 0 mm 4 mps 747 mmHg 68%
    09:00 +20°C° 0 mm 4 mps 747 mmHg 63%
    10:00 +21°C° 0 mm 4 mps 747 mmHg 56%
    11:00 +23°C° 0 mm 4 mps 747 mmHg 49%
    12:00 +26°C° 0 mm 4 mps 746 mmHg 43%
    13:00 +26°C° 0 mm 4 mps 745 mmHg 42%
    14:00 +26°C° 0 mm 3 mps 745 mmHg 41%
    15:00 +26°C° 0 mm 3 mps 744 mmHg 41%
    16:00 +26°C° 0 mm 3 mps 744 mmHg 42%
    17:00 +25°C° 0 mm 3 mps 744 mmHg 44%
    18:00 +24°C° 0 mm 3 mps 744 mmHg 45%
    19:00 +24°C° 0 mm 3 mps 744 mmHg 47%
    20:00 +22°C° 0 mm 3 mps 745 mmHg 48%
    21:00 +21°C° 0 mm 3 mps 745 mmHg 50%
    22:00 +20°C° 0 mm 4 mps 745 mmHg 50%
    23:00 +20°C° 0 mm 4 mps 745 mmHg 50%
    Show more